Location: Homewood
(41.1836°S, 175.9581°E)
Time: 15:39:42
(UTC+00:00)

NOSS 3-3 (A) - Visible Passes

Search period start: 16 July 2024 00:00
Search period end: 26 July 2024 00:00
Orbit: 738 x 1473 km, 63.4° (Epoch: 26 June)

Date Brightness Start Highest point End Pass type
(mag) Time Alt. Az. Time Alt. Az. Time Alt. Az.
16 Jul 6.6 15:40:39 11° SSE 15:40:39 11° SSE 15:41:25 10° SSE visible
16 Jul 5.5 17:28:05 13° SSW 17:32:45 28° SE 17:37:34 10° E visible
17 Jul 5.9 16:44:43 16° S 16:47:11 20° SSE 16:51:27 10° ESE visible
17 Jul 3.8 18:32:54 10° SW 18:39:14 83° SE 18:44:36 10° NE visible
18 Jul 6.2 16:01:25 15° SSE 16:01:28 15° SSE 16:05:01 10° ESE visible
18 Jul 4.5 17:48:51 14° SSW 17:54:10 52° SE 17:59:28 10° NE visible
19 Jul 6.7 15:18:09 10° SE 15:18:09 10° SE 15:18:20 10° SE visible
19 Jul 5.2 17:05:36 21° S 17:08:53 34° SE 17:13:56 10° ENE visible
19 Jul 4.2 18:54:08 10° SW 18:59:50 43° WNW 19:04:49 10° N visible
20 Jul 6.6 08:42:15 10° N 08:43:41 16° N 08:43:41 16° N visible
20 Jul 5.6 16:22:25 23° SSE 16:23:25 24° SSE 16:28:02 10° E visible
20 Jul 3.7 18:09:51 15° SW 18:15:05 74° WNW 18:20:23 10° NNE visible
21 Jul 6.1 07:58:07 10° N 08:01:15 22° NNE 08:01:15 22° NNE visible
21 Jul 6.9 09:48:10 10° NW 09:48:45 12° NW 09:48:45 12° NW visible
21 Jul 6.2 15:39:17 17° SE 15:39:17 17° SE 15:41:47 10° ESE visible
21 Jul 4.0 17:26:45 28° SSW 17:30:07 68° SE 17:35:29 10° NE visible
22 Jul 6.0 07:14:40 10° NNE 07:18:49 21° NE 07:18:49 21° NE visible
22 Jul 6.1 09:02:48 10° NW 09:06:20 27° NW 09:06:20 27° NW visible
22 Jul 4.7 16:43:43 38° SSE 16:44:57 43° SE 16:50:10 10° ENE visible
22 Jul 4.5 18:31:11 14° WSW 18:35:30 31° WNW 18:40:07 10° N visible
23 Jul 6.1 06:32:27 10° NE 06:36:24 14° ENE 06:36:24 14° ENE visible
23 Jul 5.3 08:17:53 10° NNW 08:23:54 46° N 08:23:54 46° N visible
23 Jul 6.9 10:10:26 10° WNW 10:11:24 13° WNW 10:11:24 13° WNW visible
23 Jul 5.6 16:00:46 27° ESE 16:00:46 27° ESE 16:04:29 10° E visible
23 Jul 3.8 17:48:14 31° WSW 17:50:51 54° WNW 17:56:00 10° NNE visible
24 Jul 4.9 07:33:26 10° N 07:41:27 46° ENE 07:41:27 46° ENE visible
24 Jul 6.0 09:24:26 10° WNW 09:28:57 31° WNW 09:28:57 31° WNW visible
24 Jul 6.5 15:17:54 12° ESE 15:17:54 12° ESE 15:18:26 10° E visible
24 Jul 3.6 17:05:22 72° SSW 17:05:59 89° SE 17:11:21 10° NNE visible
24 Jul 5.5 18:53:40 10° W 18:55:32 12° WNW 18:57:20 10° WNW visible
25 Jul 5.4 06:49:33 10° NNE 06:57:00 31° ENE 06:58:56 28° E visible
25 Jul 5.0 08:38:51 10° NW 08:46:26 62° W 08:46:26 62° W visible
25 Jul 7.1 10:33:39 10° W 10:33:56 11° W 10:33:56 11° W visible
25 Jul 4.8 16:22:35 41° E 16:22:35 41° E 16:26:17 10° NE visible
25 Jul 4.9 18:10:04 21° W 18:11:06 22° WNW 18:15:08 10° NNW visible
